,,,PA_Meas_PMT16A,,PR_Meas_QMR101_102,,RH_Meas_QMH101,,SR_Meas_QMS101,,TA_Meas_QMH101,,GenWind,,GenWind,
date,time,status,PA,status,PR,status,RH,status,SR,status,TA,status,DirAvg,status,SpdAvg,
2009-12-04, 00:00:04,VALID,1001.68,VALID,0,VALID,90.823,VALID,0,VALID,23.7616,VALID,170,VALID,0,
2009-12-04, 00:01:04,VALID,1001.69,VALID,0,VALID,90.7849,VALID,0,VALID,23.7616,VALID,170,VALID,0,
2009-12-04, 00:02:04,VALID,1001.67,VALID,0,VALID,90.8688,VALID,0,VALID,23.7597,VALID,170,VALID,0,
2009-12-04, 00:03:04,VALID,1001.66,VALID,0,VALID,90.8993,VALID,0,VALID,23.7402,VALID,170,VALID,0,
2009-12-04, 00:04:04,VALID,1001.65,VALID,0,VALID,90.9756,VALID,0,VALID,23.7597,VALID,170,VALID,0,
2009-12-04, 00:05:04,VALID,1001.64,VALID,0,VALID,90.9909,VALID,0,VALID,23.7616,VALID,170,VALID,0,
2009-12-04, 00:06:04,VALID,1001.62,VALID,0,VALID,91.1129,VALID,0,VALID,23.7402,VALID,170,VALID,0,
2009-12-04, 00:07:04,VALID,1001.6,VALID,0,VALID,91.235,VALID,0,VALID,23.7811,VALID,170,VALID,0,
2009-12-04, 00:08:04,VALID,1001.62,VALID,0,VALID,91.1282,VALID,0,VALID,23.7207,VALID,170,VALID,0,
2009-12-04, 00:09:04,VALID,1001.57,VALID,0,VALID,91.0519,VALID,0,VALID,23.7207,VALID,170,VALID,0,
2009-12-04, 00:10:04,VALID,1001.52,VALID,0,VALID,91.0671,VALID,0,VALID,23.742,VALID,170,VALID,0,
2009-12-04, 00:11:04,VALID,1001.51,VALID,0,VALID,91.1434,VALID,0,VALID,23.742,VALID,170,VALID,0,
2009-12-04, 00:12:04,VALID,1001.52,VALID,0,VALID,91.1663,VALID,0,VALID,23.7207,VALID,170,VALID,0,
2009-12-04, 00:13:04,VALID,1001.5,VALID,0,VALID,91.2731,VALID,0,VALID,23.7189,VALID,170,VALID,0,
2009-12-04, 00:14:04,VALID,1001.48,VALID,0,VALID,91.3876,VALID,0,VALID,23.7402,VALID,170,VALID,0,
2009-12-04, 00:15:04,VALID,1001.48,VALID,0,VALID,91.3113,VALID,0,VALID,23.7189,VALID,170,VALID,0,
2009-12-04, 00:16:04,VALID,1001.47,VALID,0,VALID,91.2197,VALID,0,VALID,23.6994,VALID,170,VALID,0,
2009-12-04, 00:17:04,VALID,1001.46,VALID,0,VALID,91.1587,VALID,0,VALID,23.6994,VALID,170,VALID,0,
2009-12-04, 00:18:04,VALID,1001.46,VALID,0,VALID,91.2274,VALID,0,VALID,23.6799,VALID,170,VALID,0,
2009-12-04, 00:19:04,VALID,1001.45,VALID,0,VALID,91.174,VALID,0,VALID,23.7012,VALID,118,VALID,0.714453,
2009-12-04, 00:20:04,VALID,1001.43,VALID,0,VALID,90.9832,VALID,0,VALID,23.7012,VALID,115,VALID,0.851172,
2009-12-04, 00:21:04,VALID,1001.41,VALID,0,VALID,90.8688,VALID,0.112286,VALID,23.7012,VALID,110,VALID,1.05156,
2009-12-04, 00:22:04,VALID,1001.42,VALID,0,VALID,90.8688,VALID,0,VALID,23.6994,VALID,111,VALID,0.793359,
2009-12-04, 00:23:04,VALID,1001.4,VALID,0,VALID,90.8993,VALID,0,VALID,23.7012,VALID,110,VALID,0.794922,
2009-12-04, 00:24:04,VALID,1001.4,VALID,0,VALID,90.968,VALID,0,VALID,23.6799,VALID,111,VALID,0.496094,
2009-12-04, 00:25:04,VALID,1001.4,VALID,0,VALID,91.0443,VALID,0,VALID,23.6799,VALID,111,VALID,0.560547,
2009-12-04, 00:26:04,VALID,1001.38,VALID,0,VALID,91.1358,VALID,0,VALID,23.6817,VALID,111,VALID,0.389453,
2009-12-04, 00:27:04,VALID,1001.39,VALID,0,VALID,91.3723,VALID,0,VALID,23.6409,VALID,111,VALID,0.610937,
2009-12-04, 00:28:04,VALID,1001.37,VALID,0,VALID,91.5249,VALID,0,VALID,23.6604,VALID,111,VALID,0.463672,
2009-12-04, 00:29:04,VALID,1001.36,VALID,0,VALID,91.6775,VALID,0,VALID,23.6622,VALID,111,VALID,0.532031,
2009-12-04, 00:30:04,VALID,1001.35,VALID,0,VALID,91.7462,VALID,0,VALID,23.6427,VALID,111,VALID,0.503125,
2009-12-04, 00:31:04,VALID,1001.35,VALID,0,VALID,91.7767,VALID,0,VALID,23.6214,VALID,111,VALID,0.521484,
2009-12-04, 00:32:04,VALID,1001.33,VALID,0,VALID,91.7614,VALID,0.112286,VALID,23.5823,VALID,111,VALID,0.757422,
2009-12-04, 00:33:04,VALID,1001.31,VALID,0,VALID,91.7309,VALID,0.112286,VALID,23.5823,VALID,112,VALID,0.733984,
2009-12-04, 00:34:04,VALID,1001.3,VALID,0,VALID,91.7157,VALID,0.112286,VALID,23.5841,VALID,128,VALID,0.732813,
2009-12-04, 00:35:04,VALID,1001.29,VALID,0,VALID,91.6699,VALID,0,VALID,23.5646,VALID,129,VALID,0.753516,
2009-12-04, 00:36:04,VALID,1001.29,VALID,0,VALID,91.502,VALID,0,VALID,23.5238,VALID,127,VALID,0.791016,
2009-12-04, 00:37:04,VALID,1001.24,VALID,0,VALID,91.4334,VALID,0,VALID,23.5451,VALID,126,VALID,0.753516,
2009-12-04, 00:38:04,VALID,1001.23,VALID,0,VALID,91.3494,VALID,0,VALID,23.5451,VALID,126,VALID,0.717969,
2009-12-04, 00:39:04,VALID,1001.18,VALID,0,VALID,91.3189,VALID,0,VALID,23.5238,VALID,125,VALID,0.660547,
2009-12-04, 00:40:04,VALID,1001.16,VALID,0,VALID,91.1816,VALID,0,VALID,23.5061,VALID,123,VALID,0.758984,
2009-12-04, 00:41:04,VALID,1001.17,VALID,0,VALID,91.1282,VALID,0,VALID,23.4848,VALID,123,VALID,0.473437,
2009-12-04, 00:42:04,VALID,1001.16,VALID,0,VALID,91.0824,VALID,0,VALID,23.4848,VALID,124,VALID,0.189453,
2009-12-04, 00:43:04,VALID,1001.17,VALID,0,VALID,91.0671,VALID,0,VALID,23.4866,VALID,124,VALID,0,
2009-12-04, 00:44:04,VALID,1001.14,VALID,0,VALID,91.0671,VALID,0.112286,VALID,23.4671,VALID,124,VALID,0,
2009-12-04, 00:45:04,VALID,1001.11,VALID,0,VALID,91.0977,VALID,0,VALID,23.4263,VALID,124,VALID,0,
2009-12-04, 00:46:04,VALID,1001.06,VALID,0,VALID,91.09,VALID,0,VALID,23.4067,VALID,124,VALID,0,
2009-12-04, 00:47:04,VALID,1001.01,VALID,0,VALID,91.3418,VALID,0,VALID,23.4067,VALID,123,VALID,0,
2009-12-04, 00:48:04,VALID,1001.01,VALID,0,VALID,91.6012,VALID,0,VALID,23.4067,VALID,114,VALID,0.639844,
2009-12-04, 00:49:04,VALID,1000.97,VALID,0,VALID,91.9217,VALID,0,VALID,23.4475,VALID,113,VALID,0.710156,
2009-12-04, 00:50:04,VALID,1000.95,VALID,0,VALID,92.0132,VALID,0,VALID,23.4671,VALID,110,VALID,0.636719,
2009-12-04, 00:51:04,VALID,1000.93,VALID,0,VALID,91.9217,VALID,0,VALID,23.4671,VALID,110,VALID,0.623047,
2009-12-04, 00:52:04,VALID,1000.95,VALID,0,VALID,91.8988,VALID,0,VALID,23.4458,VALID,115,VALID,0.625781,
2009-12-04, 00:53:04,VALID,1000.93,VALID,0,VALID,92.0132,VALID,0,VALID,23.4263,VALID,128,VALID,0.779688,
2009-12-04, 00:54:04,VALID,1000.93,VALID,0,VALID,92.0361,VALID,0.112286,VALID,23.428,VALID,138,VALID,0.544141,
2009-12-04, 00:55:04,VALID,1000.93,VALID,0,VALID,91.998,VALID,0.112286,VALID,23.3872,VALID,132,VALID,0.742188,
2009-12-04, 00:56:04,VALID,1000.92,VALID,0,VALID,91.9598,VALID,0,VALID,23.3677,VALID,137,VALID,0.420312,
2009-12-04, 00:57:04,VALID,1000.95,VALID,0,VALID,92.0132,VALID,0,VALID,23.3695,VALID,142,VALID,0.478516,
2009-12-04, 00:58:04,VALID,1000.95,VALID,0,VALID,92.0056,VALID,0,VALID,23.3695,VALID,142,VALID,0.664844,
2009-12-04, 00:59:04,VALID,1000.96,VALID,0,VALID,92.0514,VALID,0,VALID,23.3287,VALID,141,VALID,0.703906,
2009-12-04, 01:00:04,VALID,1000.94,VALID,0,VALID,91.8988,VALID,0,VALID,23.3092,VALID,123,VALID,1.02813,
2009-12-04, 01:01:04,VALID,1000.94,VALID,0,VALID,91.708,VALID,0,VALID,23.3305,VALID,121,VALID,0.70625,
2009-12-04, 01:02:04,VALID,1000.92,VALID,0,VALID,91.6623,VALID,0,VALID,23.3695,VALID,121,VALID,0.550391,
2009-12-04, 01:03:04,VALID,1000.91,VALID,0,VALID,91.6012,VALID,0,VALID,23.3287,VALID,121,VALID,0.511328,
2009-12-04, 01:04:04,VALID,1000.9,VALID,0,VALID,91.4868,VALID,0,VALID,23.35,VALID,121,VALID,0.312109,
2009-12-04, 01:05:04,VALID,1000.88,VALID,0,VALID,91.6012,VALID,0.112286,VALID,23.3482,VALID,123,VALID,0,
2009-12-04, 01:06:04,VALID,1000.84,VALID,0,VALID,91.6546,VALID,0,VALID,23.389,VALID,130,VALID,0,
2009-12-04, 01:07:04,VALID,1000.84,VALID,0,VALID,91.5631,VALID,0,VALID,23.3695,VALID,148,VALID,0.0246094,
2009-12-04, 01:08:04,VALID,1000.82,VALID,0,VALID,91.5402,VALID,0,VALID,23.3695,VALID,148,VALID,0.602344,
2009-12-04, 01:09:04,VALID,1000.79,VALID,0,VALID,91.586,VALID,0,VALID,23.3695,VALID,151,VALID,0.682031,
2009-12-04, 01:10:04,VALID,1000.81,VALID,0,VALID,91.5402,VALID,0,VALID,23.389,VALID,152,VALID,0.576953,
2009-12-04, 01:11:04,VALID,1000.77,VALID,0,VALID,91.5936,VALID,0,VALID,23.3695,VALID,154,VALID,0.433203,
2009-12-04, 01:12:04,VALID,1000.77,VALID,0,VALID,91.5936,VALID,0,VALID,23.389,VALID,154,VALID,0.7875,
2009-12-04, 01:13:04,VALID,1000.76,VALID,0,VALID,91.6546,VALID,0,VALID,23.3695,VALID,154,VALID,0.625781,
2009-12-04, 01:14:04,VALID,1000.77,VALID,0,VALID,91.7233,VALID,0,VALID,23.389,VALID,154,VALID,0.671094,
2009-12-04, 01:15:04,VALID,1000.78,VALID,0,VALID,91.8148,VALID,0,VALID,23.3677,VALID,150,VALID,0.758594,
2009-12-04, 01:16:04,VALID,1000.78,VALID,0,VALID,91.7691,VALID,0,VALID,23.3695,VALID,142,VALID,0.889844,
2009-12-04, 01:17:04,VALID,1000.76,VALID,0,VALID,91.7157,VALID,0,VALID,23.3482,VALID,147,VALID,0.978516,
2009-12-04, 01:18:04,VALID,1000.76,VALID,0,VALID,91.7157,VALID,0.112286,VALID,23.3695,VALID,150,VALID,0.647266,
2009-12-04, 01:19:04,VALID,1000.75,VALID,0,VALID,91.7767,VALID,0,VALID,23.3287,VALID,146,VALID,0.867969,
2009-12-04, 01:20:04,VALID,1000.71,VALID,0,VALID,91.8683,VALID,0.112286,VALID,23.3695,VALID,166,VALID,0.644531,
2009-12-04, 01:21:04,VALID,1000.7,VALID,0,VALID,91.8606,VALID,0,VALID,23.3287,VALID,171,VALID,0.818359,
2009-12-04, 01:22:04,VALID,1000.68,VALID,0,VALID,91.8225,VALID,0,VALID,23.35,VALID,168,VALID,0.726563,
2009-12-04, 01:23:04,VALID,1000.68,VALID,0,VALID,91.7385,VALID,0,VALID,23.3305,VALID,159,VALID,0.585547,
2009-12-04, 01:24:04,VALID,1000.66,VALID,0,VALID,91.6699,VALID,0,VALID,23.3305,VALID,162,VALID,0.874219,
2009-12-04, 01:25:04,VALID,1000.65,VALID,0,VALID,91.6317,VALID,0,VALID,23.3305,VALID,152,VALID,0.804688,
2009-12-04, 01:26:04,VALID,1000.62,VALID,0,VALID,91.7157,VALID,0,VALID,23.2897,VALID,143,VALID,0.335938,
2009-12-04, 01:27:04,VALID,1000.65,VALID,0,VALID,91.6394,VALID,0,VALID,23.3127,VALID,142,VALID,0.157422,
2009-12-04, 01:28:04,VALID,1000.65,VALID,0,VALID,91.6851,VALID,0,VALID,23.2737,VALID,140,VALID,0.284766,
2009-12-04, 01:29:04,VALID,1000.63,VALID,0,VALID,91.7157,VALID,0,VALID,23.2737,VALID,134,VALID,0.460156,
2009-12-04, 01:30:04,VALID,1000.61,VALID,0,VALID,91.708,VALID,0,VALID,23.2542,VALID,131,VALID,0.257422,
2009-12-04, 01:31:04,VALID,1000.62,VALID,0,VALID,91.7538,VALID,0,VALID,23.2542,VALID,130,VALID,0.335938,
2009-12-04, 01:32:04,VALID,1000.6,VALID,0,VALID,91.7691,VALID,0,VALID,23.2347,VALID,88,VALID,0.558984,
2009-12-04, 01:33:04,VALID,1000.61,VALID,0,VALID,91.7767,VALID,0,VALID,23.2134,VALID,90,VALID,0.440625,
2009-12-04, 01:34:04,VALID,1000.62,VALID,0,VALID,91.7614,VALID,0,VALID,23.2152,VALID,90,VALID,0,
2009-12-04, 01:35:04,VALID,1000.63,VALID,0,VALID,91.8225,VALID,0,VALID,23.1957,VALID,90,VALID,0,
2009-12-04, 01:36:04,VALID,1000.63,VALID,0,VALID,91.8454,VALID,0,VALID,23.1957,VALID,90,VALID,0,
2009-12-04, 01:37:04,VALID,1000.59,VALID,0,VALID,91.914,VALID,0,VALID,23.1957,VALID,90,VALID,0,
2009-12-04, 01:38:04,VALID,1000.6,VALID,0,VALID,91.9751,VALID,0,VALID,23.1762,VALID,90,VALID,0,
2009-12-04, 01:39:04,VALID,1000.62,VALID,0,VALID,92.0056,VALID,0,VALID,23.1549,VALID,90,VALID,0,
2009-12-04, 01:40:04,VALID,1000.65,VALID,0,VALID,92.0056,VALID,0,VALID,23.1354,VALID,90,VALID,0,
2009-12-04, 01:41:04,VALID,1000.61,VALID,0,VALID,92.0666,VALID,0,VALID,23.1354,VALID,90,VALID,0,
2009-12-04, 01:42:04,VALID,1000.62,VALID,0,VALID,92.0209,VALID,0,VALID,23.1354,VALID,90,VALID,0,
2009-12-04, 01:43:04,VALID,1000.64,VALID,0,VALID,91.9751,VALID,0.112286,VALID,23.1354,VALID,90,VALID,0.166797,
2009-12-04, 01:44:04,VALID,1000.62,VALID,0,VALID,91.9369,VALID,0.112286,VALID,23.1354,VALID,90,VALID,0.253516,
2009-12-04, 01:45:04,VALID,1000.61,VALID,0,VALID,91.8988,VALID,0,VALID,23.1159,VALID,90,VALID,0,
2009-12-04, 01:46:04,VALID,1000.62,VALID,0,VALID,91.8683,VALID,0.112286,VALID,23.0946,VALID,90,VALID,0,
2009-12-04, 01:47:04,VALID,1000.62,VALID,0,VALID,91.7691,VALID,0.112286,VALID,23.1159,VALID,90,VALID,0,
2009-12-04, 01:48:04,VALID,1000.59,VALID,0,VALID,91.7462,VALID,0,VALID,23.0964,VALID,90,VALID,0,
2009-12-04, 01:49:04,VALID,1000.56,VALID,0,VALID,91.708,VALID,0,VALID,23.0556,VALID,90,VALID,0,
2009-12-04, 01:50:04,VALID,1000.52,VALID,0,VALID,91.7462,VALID,0,VALID,23.0573,VALID,90,VALID,0,
2009-12-04, 01:51:04,VALID,1000.53,VALID,0,VALID,91.914,VALID,0,VALID,23.0378,VALID,86,VALID,0.497266,
2009-12-04, 01:52:04,VALID,1000.53,VALID,0,VALID,92.3031,VALID,0.112286,VALID,23.0769,VALID,81,VALID,0.526172,
2009-12-04, 01:53:04,VALID,1000.53,VALID,0,VALID,92.326,VALID,0,VALID,23.0964,VALID,81,VALID,0.386328,
2009-12-04, 01:54:04,VALID,1000.54,VALID,0,VALID,92.326,VALID,0,VALID,23.0769,VALID,81,VALID,0.194922,
2009-12-04, 01:55:04,VALID,1000.49,VALID,0,VALID,92.326,VALID,0,VALID,23.0573,VALID,81,VALID,0.132031,
2009-12-04, 01:56:04,VALID,1000.49,VALID,0,VALID,92.3337,VALID,0.112286,VALID,23.0573,VALID,81,VALID,0.169141,
2009-12-04, 01:57:04,VALID,1000.47,VALID,0,VALID,92.3794,VALID,0.112286,VALID,23.0573,VALID,81,VALID,0.0921875,
2009-12-04, 01:58:04,VALID,1000.47,VALID,0,VALID,92.4328,VALID,0,VALID,23.0378,VALID,81,VALID,0.228516,
2009-12-04, 01:59:04,VALID,1000.45,VALID,0,VALID,92.5168,VALID,0,VALID,23.0378,VALID,81,VALID,0.509766,
2009-12-04, 02:00:04,VALID,1000.42,VALID,0,VALID,92.5854,VALID,0,VALID,23.0378,VALID,81,VALID,0.758594,
2009-12-04, 02:01:04,VALID,1000.43,VALID,0,VALID,92.6388,VALID,0,VALID,23.0361,VALID,68,VALID,0.986328,
2009-12-04, 02:02:04,VALID,1000.42,VALID,0,VALID,92.677,VALID,0.112286,VALID,23.0166,VALID,68,VALID,0.883984,
2009-12-04, 02:03:04,VALID,1000.41,VALID,0,VALID,92.6694,VALID,0.112286,VALID,23.0573,VALID,68,VALID,0.73125,
2009-12-04, 02:04:04,VALID,1000.44,VALID,0,VALID,92.677,VALID,0.112286,VALID,23.0166,VALID,62,VALID,0.501953,
2009-12-04, 02:05:04,VALID,1000.44,VALID,0,VALID,92.616,VALID,0,VALID,23.0378,VALID,62,VALID,0.547656,
2009-12-04, 02:06:04,VALID,1000.45,VALID,0,VALID,92.6007,VALID,0,VALID,23.0183,VALID,62,VALID,0.564844,
2009-12-04, 02:07:04,VALID,1000.46,VALID,0,VALID,92.5397,VALID,0,VALID,22.9776,VALID,62,VALID,0.179688,
2009-12-04, 02:08:04,VALID,1000.46,VALID,0,VALID,92.5473,VALID,0.112286,VALID,22.9581,VALID,62,VALID,0,
2009-12-04, 02:09:04,VALID,1000.47,VALID,0,VALID,92.5549,VALID,0,VALID,22.9581,VALID,62,VALID,0,
2009-12-04, 02:10:04,VALID,1000.45,VALID,0,VALID,92.6388,VALID,0.112286,VALID,22.9581,VALID,62,VALID,0.00390625,
2009-12-04, 02:11:04,VALID,1000.46,VALID,0,VALID,92.7151,VALID,0,VALID,22.9581,VALID,62,VALID,0,
2009-12-04, 02:12:04,VALID,1000.42,VALID,0,VALID,92.6923,VALID,0,VALID,22.9615,VALID,62,VALID,0.909375,
2009-12-04, 02:13:04,VALID,1000.44,VALID,0,VALID,92.7609,VALID,0,VALID,22.9598,VALID,62,VALID,0.853906,
2009-12-04, 02:14:04,VALID,1000.45,VALID,0,VALID,92.677,VALID,0,VALID,22.9403,VALID,61,VALID,0.985547,
2009-12-04, 02:15:04,VALID,1000.45,VALID,0,VALID,92.6312,VALID,0,VALID,22.9225,VALID,59,VALID,0.81875,
2009-12-04, 02:16:04,VALID,1000.46,VALID,0,VALID,92.6465,VALID,0,VALID,22.903,VALID,59,VALID,0.5125,
2009-12-04, 02:17:04,VALID,1000.48,VALID,0,VALID,92.5854,VALID,0,VALID,22.8835,VALID,57,VALID,0.300391,
2009-12-04, 02:18:04,VALID,1000.48,VALID,0,VALID,92.5549,VALID,0,VALID,22.864,VALID,57,VALID,0.327734,
2009-12-04, 02:19:04,VALID,1000.46,VALID,0,VALID,92.5244,VALID,0,VALID,22.8232,VALID,56,VALID,0.471094,
2009-12-04, 02:20:04,VALID,1000.44,VALID,0,VALID,92.5626,VALID,0,VALID,22.8232,VALID,54,VALID,0.632813,
2009-12-04, 02:21:04,VALID,1000.41,VALID,0,VALID,92.5626,VALID,0,VALID,22.8445,VALID,54,VALID,0.717188,
2009-12-04, 02:22:04,VALID,1000.38,VALID,0,VALID,92.5854,VALID,0,VALID,22.8445,VALID,58,VALID,1.06055,
2009-12-04, 02:23:04,VALID,1000.36,VALID,0,VALID,92.4557,VALID,0,VALID,22.8232,VALID,60,VALID,0.613672,
2009-12-04, 02:24:04,VALID,1000.35,VALID,0,VALID,92.41,VALID,0,VALID,22.8055,VALID,60,VALID,0,
2009-12-04, 02:25:04,VALID,1000.33,VALID,0,VALID,92.4328,VALID,0,VALID,22.8055,VALID,60,VALID,0.18125,
2009-12-04, 02:26:04,VALID,1000.37,VALID,0,VALID,92.5091,VALID,0,VALID,22.8055,VALID,60,VALID,0,
2009-12-04, 02:27:04,VALID,1000.34,VALID,0,VALID,92.5549,VALID,0,VALID,22.8037,VALID,60,VALID,0,
2009-12-04, 02:28:04,VALID,1000.31,VALID,0,VALID,92.5549,VALID,0,VALID,22.8037,VALID,58,VALID,0,
2009-12-04, 02:29:04,VALID,1000.34,VALID,0,VALID,92.4939,VALID,0,VALID,22.7842,VALID,53,VALID,0,
2009-12-04, 02:30:04,VALID,1000.33,VALID,0,VALID,92.4863,VALID,0,VALID,22.7452,VALID,340,VALID,0,
2009-12-04, 02:31:04,VALID,1000.28,VALID,0,VALID,92.6007,VALID,0,VALID,22.7647,VALID,340,VALID,0,
2009-12-04, 02:32:04,VALID,1000.27,VALID,0,VALID,92.5931,VALID,0,VALID,22.7664,VALID,340,VALID,0,
2009-12-04, 02:33:04,VALID,1000.24,VALID,0,VALID,92.5702,VALID,0,VALID,22.7647,VALID,340,VALID,0,
2009-12-04, 02:34:04,VALID,1000.23,VALID,0,VALID,92.5931,VALID,0,VALID,22.7664,VALID,340,VALID,0,
2009-12-04, 02:35:04,VALID,1000.22,VALID,0,VALID,92.5702,VALID,0,VALID,22.7452,VALID,340,VALID,0,
2009-12-04, 02:36:04,VALID,1000.2,VALID,0,VALID,92.616,VALID,0,VALID,22.7257,VALID,341,VALID,0,
2009-12-04, 02:37:04,VALID,1000.17,VALID,0,VALID,92.6312,VALID,0,VALID,22.7257,VALID,57,VALID,0.720703,
2009-12-04, 02:38:04,VALID,1000.2,VALID,0,VALID,92.5168,VALID,0,VALID,22.7469,VALID,64,VALID,0.766406,
2009-12-04, 02:39:04,VALID,1000.17,VALID,0,VALID,92.3947,VALID,0,VALID,22.7469,VALID,63,VALID,0.641016,
2009-12-04, 02:40:04,VALID,1000.15,VALID,0,VALID,92.1658,VALID,0,VALID,22.6867,VALID,32,VALID,0.439063,
2009-12-04, 02:41:04,VALID,1000.16,VALID,0,VALID,91.9903,VALID,0,VALID,22.6672,VALID,343,VALID,0.627734,
2009-12-04, 02:42:04,VALID,1000.13,VALID,0,VALID,92.0361,VALID,0,VALID,22.6477,VALID,337,VALID,0.393359,
2009-12-04, 02:43:04,VALID,1000.18,VALID,0,VALID,91.998,VALID,0,VALID,22.6282,VALID,337,VALID,0,
2009-12-04, 02:44:04,VALID,1000.15,VALID,0,VALID,92.1277,VALID,0,VALID,22.6087,VALID,52,VALID,0.598437,
2009-12-04, 02:45:04,VALID,1000.17,VALID,0,VALID,92.2574,VALID,0,VALID,22.6299,VALID,55,VALID,0.832422,
2009-12-04, 02:46:04,VALID,1000.17,VALID,0,VALID,92.3794,VALID,0,VALID,22.6299,VALID,55,VALID,0.767969,
2009-12-04, 02:47:04,VALID,1000.19,VALID,0,VALID,92.3718,VALID,0,VALID,22.6299,VALID,55,VALID,0.376172,
2009-12-04, 02:48:04,VALID,1000.18,VALID,0,VALID,92.3718,VALID,0,VALID,22.6299,VALID,56,VALID,0.237891,
2009-12-04, 02:49:04,VALID,1000.19,VALID,0,VALID,92.3337,VALID,0,VALID,22.6104,VALID,56,VALID,0.112109,
2009-12-04, 02:50:04,VALID,1000.21,VALID,0,VALID,92.3108,VALID,0,VALID,22.6104,VALID,55,VALID,0,
2009-12-04, 02:51:04,VALID,1000.17,VALID,0,VALID,92.326,VALID,0,VALID,22.5909,VALID,55,VALID,0,
2009-12-04, 02:52:04,VALID,1000.17,VALID,0,VALID,92.2879,VALID,0,VALID,22.5714,VALID,55,VALID,0,
2009-12-04, 02:53:04,VALID,1000.19,VALID,0,VALID,92.3184,VALID,0,VALID,22.5519,VALID,69,VALID,0.723828,
2009-12-04, 02:54:04,VALID,1000.2,VALID,0,VALID,92.4863,VALID,0,VALID,22.5714,VALID,72,VALID,0.902344,
2009-12-04, 02:55:04,VALID,1000.19,VALID,0,VALID,92.5397,VALID,0,VALID,22.5501,VALID,72,VALID,0.701953,
2009-12-04, 02:56:04,VALID,1000.19,VALID,0,VALID,92.5854,VALID,0,VALID,22.5909,VALID,81,VALID,0.781641,
2009-12-04, 02:57:04,VALID,1000.23,VALID,0,VALID,92.5168,VALID,0,VALID,22.5892,VALID,98,VALID,0.626953,
2009-12-04, 02:58:04,VALID,1000.24,VALID,0,VALID,92.4557,VALID,0,VALID,22.6087,VALID,108,VALID,0.445313,
2009-12-04, 02:59:04,VALID,1000.26,VALID,0,VALID,92.4863,VALID,0,VALID,22.6299,VALID,120,VALID,0.362891,
2009-12-04, 03:00:04,VALID,1000.27,VALID,0,VALID,92.4176,VALID,0,VALID,22.6299,VALID,127,VALID,0.525,
2009-12-04, 03:01:04,VALID,1000.27,VALID,0,VALID,92.3794,VALID,0,VALID,22.6087,VALID,145,VALID,0.645703,
2009-12-04, 03:02:04,VALID,1000.28,VALID,0,VALID,92.4176,VALID,0,VALID,22.6282,VALID,157,VALID,0.432031,
2009-12-04, 03:03:04,VALID,1000.29,VALID,0,VALID,92.4252,VALID,0,VALID,22.6477,VALID,177,VALID,0.373047,
2009-12-04, 03:04:04,VALID,1000.29,VALID,0,VALID,92.4557,VALID,0,VALID,22.6884,VALID,177,VALID,0,
2009-12-04, 03:05:04,VALID,1000.27,VALID,0,VALID,92.5626,VALID,0,VALID,22.7079,VALID,172,VALID,0,
2009-12-04, 03:06:04,VALID,1000.31,VALID,0,VALID,92.5702,VALID,0,VALID,22.7274,VALID,168,VALID,0,
2009-12-04, 03:07:04,VALID,1000.29,VALID,0,VALID,92.5015,VALID,0,VALID,22.7274,VALID,159,VALID,0.747656,
2009-12-04, 03:08:04,VALID,1000.27,VALID,0,VALID,92.4786,VALID,0,VALID,22.7062,VALID,150,VALID,0.573828,
2009-12-04, 03:09:04,VALID,1000.25,VALID,0,VALID,92.4634,VALID,0,VALID,22.7062,VALID,157,VALID,0.855469,
2009-12-04, 03:10:04,VALID,1000.26,VALID,0,VALID,92.3489,VALID,0,VALID,22.7257,VALID,141,VALID,0.7875,
2009-12-04, 03:11:04,VALID,1000.26,VALID,0,VALID,92.2116,VALID,0,VALID,22.7664,VALID,141,VALID,0.575391,
2009-12-04, 03:12:04,VALID,1000.26,VALID,0,VALID,92.0819,VALID,0,VALID,22.7647,VALID,141,VALID,0.0457031,
2009-12-04, 03:13:04,VALID,1000.27,VALID,0,VALID,91.9598,VALID,0,VALID,22.7647,VALID,141,VALID,0,
2009-12-04, 03:14:04,VALID,1000.28,VALID,0,VALID,91.9217,VALID,0,VALID,22.7647,VALID,141,VALID,0,
2009-12-04, 03:15:04,VALID,1000.28,VALID,0,VALID,91.8377,VALID,0,VALID,22.7452,VALID,141,VALID,0,
2009-12-04, 03:16:04,VALID,1000.29,VALID,0,VALID,91.8225,VALID,0,VALID,22.7452,VALID,141,VALID,0,
2009-12-04, 03:17:04,VALID,1000.31,VALID,0,VALID,91.8148,VALID,0,VALID,22.7257,VALID,141,VALID,0,
2009-12-04, 03:18:04,VALID,1000.27,VALID,0,VALID,91.8454,VALID,0,VALID,22.7257,VALID,62,VALID,0.116016,
2009-12-04, 03:19:04,VALID,1000.26,VALID,0,VALID,91.9598,VALID,0,VALID,22.685,VALID,355,VALID,0.0207031,
2009-12-04, 03:20:04,VALID,1000.23,VALID,0,VALID,91.9827,VALID,0,VALID,22.7062,VALID,355,VALID,0,
2009-12-04, 03:21:04,VALID,1000.23,VALID,0,VALID,91.9751,VALID,0,VALID,22.6655,VALID,355,VALID,0,
2009-12-04, 03:22:04,VALID,1000.22,VALID,0,VALID,91.9598,VALID,0.112286,VALID,22.6655,VALID,355,VALID,0,
2009-12-04, 03:23:04,VALID,1000.26,VALID,0,VALID,92.0132,VALID,0,VALID,22.6672,VALID,355,VALID,0.113672,
2009-12-04, 03:24:04,VALID,1000.27,VALID,0,VALID,92.0056,VALID,0,VALID,22.6477,VALID,355,VALID,0.200391,
2009-12-04, 03:25:04,VALID,1000.26,VALID,0,VALID,92.0361,VALID,0,VALID,22.6069,VALID,355,VALID,0.00625,
2009-12-04, 03:26:04,VALID,1000.29,VALID,0,VALID,92.1124,VALID,0,VALID,22.6282,VALID,355,VALID,0,
2009-12-04, 03:27:04,VALID,1000.27,VALID,0,VALID,92.1887,VALID,0,VALID,22.5874,VALID,355,VALID,0,
2009-12-04, 03:28:04,VALID,1000.25,VALID,0,VALID,92.2421,VALID,0,VALID,22.5874,VALID,355,VALID,0,
2009-12-04, 03:29:04,VALID,1000.24,VALID,0,VALID,92.326,VALID,0.112286,VALID,22.5874,VALID,355,VALID,0,
2009-12-04, 03:30:04,VALID,1000.24,VALID,0,VALID,92.3871,VALID,0,VALID,22.6087,VALID,355,VALID,0,
2009-12-04, 03:31:04,VALID,1000.24,VALID,0,VALID,92.3718,VALID,0,VALID,22.5892,VALID,355,VALID,0,
2009-12-04, 03:32:04,VALID,1000.23,VALID,0,VALID,92.4328,VALID,0,VALID,22.5696,VALID,344,VALID,0,
2009-12-04, 03:33:04,VALID,1000.26,VALID,0,VALID,92.5473,VALID,0.112286,VALID,22.5679,VALID,310,VALID,0.371484,
2009-12-04, 03:34:04,VALID,1000.24,VALID,0,VALID,92.5244,VALID,0,VALID,22.5679,VALID,310,VALID,0,
2009-12-04, 03:35:04,VALID,1000.23,VALID,0,VALID,92.5854,VALID,0,VALID,22.5696,VALID,311,VALID,0.321094,
2009-12-04, 03:36:04,VALID,1000.24,VALID,0,VALID,92.6236,VALID,0,VALID,22.5874,VALID,64,VALID,0.869141,
2009-12-04, 03:37:04,VALID,1000.27,VALID,0,VALID,92.5549,VALID,0,VALID,22.6087,VALID,69,VALID,0.873438,
2009-12-04, 03:38:04,VALID,1000.27,VALID,0,VALID,92.4939,VALID,0,VALID,22.6672,VALID,67,VALID,1.0832,
2009-12-04, 03:39:04,VALID,1000.24,VALID,0,VALID,92.4023,VALID,0,VALID,22.6867,VALID,82,VALID,0.975,
2009-12-04, 03:40:04,VALID,1000.26,VALID,0,VALID,92.2879,VALID,0,VALID,22.7452,VALID,97,VALID,0.762109,
2009-12-04, 03:41:04,VALID,1000.32,VALID,0,VALID,92.1658,VALID,0,VALID,22.7647,VALID,100,VALID,0.422266,
2009-12-04, 03:42:04,VALID,1000.31,VALID,0,VALID,92.1277,VALID,0,VALID,22.786,VALID,100,VALID,0.303516,
2009-12-04, 03:43:04,VALID,1000.3,VALID,0,VALID,92.12,VALID,0,VALID,22.7842,VALID,95,VALID,0.661328,
2009-12-04, 03:44:04,VALID,1000.33,VALID,0,VALID,92.1353,VALID,0,VALID,22.8037,VALID,105,VALID,0.354688,
2009-12-04, 03:45:04,VALID,1000.34,VALID,0,VALID,92.059,VALID,0,VALID,22.8445,VALID,105,VALID,0,
2009-12-04, 03:46:04,VALID,1000.35,VALID,0,VALID,92.0209,VALID,0,VALID,22.8445,VALID,105,VALID,0,
2009-12-04, 03:47:04,VALID,1000.33,VALID,0,VALID,91.853,VALID,0,VALID,22.864,VALID,104,VALID,0.708984,
2009-12-04, 03:48:04,VALID,1000.32,VALID,0,VALID,91.7157,VALID,0,VALID,22.903,VALID,86,VALID,1.10117,